Home   Weather   Anderson   Past weeks
Flag for USA

Past Weather in Anderson, South Carolina, USA — Yesterday and Last 2 Weeks

Now
53 °F

Heavy rain. Fog.


Feels Like: 48 °F
Forecast: 55 / 49 °F
Wind: 16 mph from Northeast

Location: Anderson County Airport

Current Time: Oct 19, 2019 at 6:39:04 pm

Latest Report: Oct 19, 2019 at 5:56 pm


Visibility: 2 mi

Pressure: 29.85 "Hg

Humidity: 89%

Dew Point: 50 °F

Location of AndersonLocation

Past Weather in Anderson — Graph

°F

Anderson Temperature Yesterday

Maximum temperature yesterday: 68 °F (at 2:56 pm)
Minimum temperature yesterday: 44 °F (at 3:56 am)
Average temperature yesterday: 55 °F

High & Low Weather Summary for the Past Weeks

 TemperatureHumidityPressure
High95 °F (Oct 4, 5:56 pm)97% (Oct 14, 8:02 am)30.28 "Hg (Oct 14, 8:02 am)
Low41 °F (Oct 17, 7:56 am)26% (Oct 17, 5:56 pm)29.71 "Hg (Oct 16, 2:56 pm)
Average65 °F74%30.04 "Hg
* Reported Oct 4 5:56 pm — Oct 19 5:24 pm, Anderson. Weather by CustomWeather, © 2019

Note: Actual official high and low records may vary slightly from our data, if they occured in-between our weather recording intervals... More about our weather records

Advertising

Anderson Weather History for the Previous 24 Hours

Scroll right to see more
 ConditionsComfort  
Time TempWeatherWind HumidityBarometerVisibility
5:24 pm
Sat, Oct 19
52 °FHeavy rain. Fog.14 mph93%29.87 "Hg2 mi
5:07 pm52 °FHeavy rain. Fog.15 mph93%29.89 "Hg1 mi
4:26 pm52 °FRain. Fog.17 mph89%29.89 "Hg3 mi
4:05 pm52 °FRain. Fog.15 mph89%29.92 "Hg2 mi
3:56 pm52 °FRain. Fog.12 mph93%29.91 "Hg4 mi
3:12 pm52 °FRain. Fog.13 mph93%29.94 "Hg3 mi
3:07 pm52 °FRain. Fog.15 mph93%29.94 "Hg2 mi
2:06 pm52 °FHeavy rain. Fog.8 mph93%29.99 "Hg2 mi
1:56 pm52 °FHeavy rain. Fog.9 mph89%29.99 "Hg2 mi
1:29 pm53 °FRain. Fog.10 mph86%30.01 "Hg4 mi
12:56 pm53 °FLight rain. Fog.12 mph86%30.03 "Hg3 mi
12:35 pm53 °FLight rain. Overcast.7 mph86%30.05 "Hg10 mi
11:56 am53 °FLight rain. Overcast.8 mph83%30.05 "Hg8 mi
10:56 am52 °FLight rain. Overcast.7 mph86%30.05 "Hg10 mi
9:56 am52 °FRain. Overcast.7 mph83%30.04 "Hg7 mi
8:56 am54 °FLight rain. Mostly cloudy.9 mph72%30.03 "Hg10 mi
7:56 am53 °FOvercast.6 mph74%30.02 "Hg10 mi
6:56 am53 °FOvercast.7 mph74%30.00 "Hg10 mi
5:56 am52 °FClear.7 mph75%29.99 "Hg10 mi
4:56 am51 °FClear.5 mph80%30.00 "Hg10 mi
3:56 am51 °FClear.3 mph80%30.01 "Hg10 mi
2:56 am51 °FClear.3 mph83%30.01 "Hg10 mi
1:56 am51 °FClear.3 mph83%30.01 "Hg10 mi
12:56 am51 °FClear.No wind86%30.01 "Hg10 mi
11:56 pm
Fri, Oct 18
51 °FClear.No wind86%30.01 "Hg10 mi
10:56 pm53 °FClear.No wind83%30.00 "Hg10 mi
9:56 pm54 °FClear.No wind80%29.99 "Hg10 mi
8:56 pm56 °FClear.3 mph75%30.00 "Hg10 mi
7:56 pm57 °FClear.No wind72%30.00 "Hg10 mi
6:56 pm61 °FClear.No wind60%29.99 "Hg10 mi
Weather by CustomWeather, © 2019

See weather overview